This is the latest recevied weather packets stored in our database for station/object NR5ON-13. If no packets are shown the sender has not sent any weather packets the latest 10 day(s).
| Time | Temp. | Humidity | Pressure | Rain* | Wind** | Luminosity | Snow |
|---|---|---|---|---|---|---|---|
| 1777841012 | 18.89° C | 21% | 1019.7 hPa | 0 mm | - | - | - |
| 1777840718 | 19.44° C | 22% | 1019.9 hPa | 0 mm | - | - | - |
| 1777840403 | 19.44° C | 23% | 1019.9 hPa | 0 mm | - | - | - |
| 1777840107 | 18.89° C | 22% | 1020.1 hPa | 0 mm | - | - | - |
| 1777839815 | 19.44° C | 23% | 1020.3 hPa | 0 mm | - | - | - |
| 1777839501 | 18.89° C | 23% | 1020.3 hPa | 0 mm | - | - | - |
| 1777839207 | 18.89° C | 23% | 1020.3 hPa | 0 mm | - | - | - |
| 1777838911 | 18.33° C | 24% | 1020.4 hPa | 0 mm | - | - | - |
| 1777838617 | 18.33° C | 24% | 1020.3 hPa | 0 mm | - | - | - |
| 1777838306 | 18.89° C | 23% | 1020.5 hPa | 0 mm | - | - | - |
| 1777838011 | 18.89° C | 23% | 1020.7 hPa | 0 mm | - | - | - |
| 1777837719 | 18.89° C | 24% | 1020.7 hPa | 0 mm | - | - | - |
| 1777837405 | 18.33° C | 24% | 1020.8 hPa | 0 mm | - | - | - |
| 1777837110 | 18.33° C | 25% | 1021 hPa | 0 mm | - | - | - |
| 1777836814 | 18.33° C | 24% | 1021 hPa | 0 mm | - | - | - |
| 1777836519 | 18.33° C | 25% | 1020.9 hPa | 0 mm | - | - | - |
| 1777836204 | 18.33° C | 26% | 1021 hPa | 0 mm | - | - | - |
| 1777835912 | 18.33° C | 26% | 1021.1 hPa | 0 mm | - | - | - |
| 1777835617 | 17.78° C | 27% | 1021.2 hPa | 0 mm | - | - | - |
| 1777835307 | 17.78° C | 27% | 1021.3 hPa | 0 mm | - | - | - |
| 1777835012 | 18.33° C | 27% | 1021.4 hPa | 0 mm | - | - | - |
| 1777834716 | 17.78° C | 26% | 1021.5 hPa | 0 mm | - | - | - |
| 1777834402 | 17.78° C | 24% | 1021.7 hPa | 0 mm | - | - | - |
| 1777834107 | 17.78° C | 24% | 1021.8 hPa | 0 mm | - | - | - |
| 1777833813 | 17.78° C | 23% | 1021.9 hPa | 0 mm | - | - | - |
* Rain latest hour (hover to see other rain measurements)
** Current wind speed in m/s (hover to see current wind gust speed)